FW5754 Weather Reports


Display with metric or nautical units.
time (UTC)temp
F
wind
direction
speed
MPH
gust
MPH
rain 1hr
in
rain 24hr
in
rain mn
in
humidity
%
barometer
mb
20260904090530 72 304 12.0 17.0 0.03 0.08 0.08 91 1010.2
20260904090046 72 316 10.0 15.0 0.02 0.07 0.07 92 1010.5
20260904085534 72 315 12.0 15.0 0.01 0.19 0.06 92 1010.8
20260904085030 72 312 9.0 11.0 0.02 0.19 0.06 93 1010.9
20260904084558 72 288 4.0 7.0 0.03 0.19 0.06 92 1010.6
20260904084032 72 216 3.0 4.0 0.04 0.19 0.06 92 1010.4
20260904083532 72 216 1.0 2.0 0.05 0.19 0.06 92 1010.4
20260904083056 72 0 0.0 0.0 0.05 0.19 0.06 91 1010.2
20260904082531 72 0 0.0 2.0 0.05 0.19 0.06 91 1010.0
20260904082031 72 0 0.0 2.0 0.05 0.19 0.06 92 1010.0
20260904081551 72 0 1.0 2.0 0.06 0.19 0.06 91 1009.9
20260904081030 72 0 0.0 2.0 0.06 0.19 0.06 91 1009.8
20260904080530 72 0 0.0 3.0 0.05 0.18 0.05 91 1009.6
20260904080046 72 0 0.0 4.0 0.05 0.18 0.05 91 1009.7
20260904075532 72 0 1.0 4.0 0.05 0.26 0.05 91 1010.0
20260904075031 72 0 1.0 7.0 0.04 0.25 0.04 91 1010.2
20260904074612 72 216 2.0 8.0 0.03 0.24 0.03 90 1010.4
20260904074032 73 208 4.0 8.0 0.02 0.23 0.02 90 1010.5
20260904073530 73 272 3.0 8.0 0.01 0.22 0.01 90 1010.6
20260904073050 73 275 4.0 8.0 0.01 0.22 0.01 91 1010.7
20260904072530 73 277 4.0 10.0 0.01 0.22 0.01 91 1010.6
20260904072032 73 278 6.0 11.0 0.01 0.22 0.01 90 1010.6
20260904071549 73 277 7.0 11.0 0.00 0.21 0.00 90 1010.7
20260904071032 73 271 7.0 10.0 0.00 0.21 0.00 90 1010.6
20260904070533 74 229 3.0 5.0 0.00 0.21 0.00 92 1010.6
20260904070048 74 225 1.0 6.0 0.00 0.21 0.00 92 1010.3
20260904065532 74 225 4.0 6.0 0.00 0.22 0.00 92 1010.5
20260904065031 74 224 4.0 5.0 0.00 0.22 0.00 92 1010.8
20260904064553 74 222 3.0 5.0 0.00 0.22 0.00 92 1010.9
20260904064032 74 219 3.0 5.0 0.00 0.22 0.00 92 1010.7
20260904063530 74 208 1.0 3.0 0.00 0.22 0.00 92 1010.7
20260904063105 74 0 0.0 2.0 0.00 0.22 0.00 92 1010.8
20260904062533 74 208 0.0 2.0 0.00 0.22 0.00 93 1010.8
20260904062031 74 0 0.0 2.0 0.00 0.22 0.00 93 1010.7
20260904061551 74 0 0.0 4.0 0.00 0.22 0.00 92 1010.6
20260904061033 74 0 0.0 4.0 0.00 0.22 0.00 93 1010.6
20260904060533 73 207 2.0 3.0 0.00 0.22 0.00 93 1010.8
20260904060108 73 207 0.0 3.0 0.00 0.22 0.00 93 1010.8
20260904055530 73 208 2.0 4.0 0.00 0.22 0.00 93 1010.8
20260904055031 73 207 2.0 4.0 0.00 0.22 0.00 93 1010.8
20260904054555 73 207 1.0 4.0 0.00 0.22 0.00 93 1010.8
20260904054030 73 0 0.0 0.0 0.00 0.22 0.00 93 1011.0
20260904053530 73 0 0.0 0.0 0.00 0.22 0.00 93 1011.1
20260904053049 73 0 0.0 0.0 0.00 0.22 0.00 93 1011.1
20260904052531 73 0 0.0 0.0 0.00 0.22 0.00 92 1011.1
20260904052035 73 0 0.0 0.0 0.00 0.22 0.00 93 1011.3
20260904051548 73 0 0.0 0.0 0.00 0.22 0.00 93 1011.5
20260904051036 73 0 0.0 0.0 0.00 0.22 0.00 93 1011.6
20260904050532 73 0 0.0 0.0 0.00 0.22 0.00 93 1011.6
20260904050046 73 0 0.0 0.0 0.00 0.22 0.00 93 1011.6
20260904045532 73 0 0.0 0.0 0.00 0.22 0.00 93 1011.6
20260904045032 73 0 0.0 0.0 0.00 0.22 0.00 93 1011.6
20260904044555 74 0 0.0 0.0 0.00 0.22 0.00 92 1011.7
20260904044031 74 0 0.0 0.0 0.00 0.22 0.00 93 1011.8
20260904043530 73 0 0.0 0.0 0.00 0.22 0.00 93 1011.9
20260904043049 73 0 0.0 0.0 0.00 0.22 0.00 93 1011.9
20260904042530 73 0 0.0 0.0 0.00 0.22 0.00 93 1011.9
20260904042031 73 0 0.0 0.0 0.00 0.22 0.00 91 1012.1
20260904041559 73 0 0.0 0.0 0.00 0.22 0.00 92 1012.1
20260904041030 73 0 0.0 0.0 0.00 0.22 0.00 91 1012.1
20260904040534 73 0 0.0 0.0 0.00 0.22 0.00 91 1012.1
20260904040059 74 0 0.0 0.0 0.00 0.22 0.00 91 1012.1
20260904035533 74 0 0.0 0.0 0.00 0.22 0.22 91 1012.2
20260904035032 74 0 0.0 0.0 0.00 0.22 0.22 91 1012.2
20260904034601 74 0 0.0 0.0 0.00 0.22 0.22 91 1012.2
20260904034030 74 0 0.0 2.0 0.00 0.22 0.22 91 1012.3
20260904033530 74 0 0.0 2.0 0.00 0.22 0.22 91 1012.3
20260904033048 74 0 0.0 5.0 0.00 0.22 0.22 90 1012.4
20260904032533 74 207 1.0 5.0 0.00 0.22 0.22 90 1012.5
20260904032030 74 207 1.0 5.0 0.00 0.22 0.22 90 1012.4
20260904031546 74 208 2.0 6.0 0.00 0.22 0.22 90 1012.4
20260904031031 74 207 1.0 6.0 0.00 0.22 0.22 90 1012.4
20260904030536 74 208 2.0 6.0 0.00 0.22 0.22 91 1012.5
20260904030055 74 208 0.0 4.0 0.00 0.22 0.22 90 1012.5
20260904025536 74 0 0.0 4.0 0.00 0.22 0.22 90 1012.3
20260904025031 74 208 1.0 4.0 0.00 0.22 0.22 90 1012.2
20260904024549 74 208 2.0 3.0 0.00 0.22 0.22 90 1012.3
20260904024031 74 208 2.0 4.0 0.00 0.22 0.22 89 1012.3
20260904023533 74 208 2.0 4.0 0.00 0.22 0.22 89 1012.3
20260904023047 74 208 0.0 3.0 0.00 0.22 0.22 88 1012.4
20260904022532 74 0 0.0 2.0 0.00 0.22 0.22 88 1012.5
20260904022034 75 0 0.0 5.0 0.00 0.22 0.22 87 1012.7
20260904021548 75 208 1.0 5.0 0.00 0.22 0.22 87 1012.8
20260904021031 75 208 2.0 5.0 0.00 0.22 0.22 87 1012.9
20260904020531 75 208 1.0 6.0 0.00 0.22 0.22 87 1013.0
20260904020057 75 208 2.0 6.0 0.00 0.22 0.22 87 1012.9
20260904015532 75 208 2.0 8.0 0.00 0.22 0.22 87 1013.2
20260904015031 75 207 2.0 8.0 0.00 0.22 0.22 86 1013.2
20260904014553 75 209 2.0 5.0 0.00 0.22 0.22 87 1013.2
20260904014032 75 209 2.0 5.0 0.00 0.22 0.22 87 1013.1
20260904013529 75 0 1.0 5.0 0.00 0.22 0.22 87 1012.9
20260904013049 75 209 2.0 5.0 0.00 0.22 0.22 87 1012.9
20260904012535 75 209 2.0 5.0 0.00 0.22 0.22 87 1013.0
20260904012036 75 209 2.0 5.0 0.00 0.22 0.22 87 1013.1
20260904011559 75 209 1.0 5.0 0.00 0.22 0.22 87 1013.1
20260904011037 75 209 2.0 6.0 0.00 0.22 0.22 87 1013.1
20260904010532 75 209 2.0 8.0 0.00 0.22 0.22 87 1013.0
20260904010101 75 210 3.0 7.0 0.00 0.22 0.22 87 1013.1
20260904005531 75 213 2.0 6.0 0.00 0.22 0.22 88 1013.2
20260904005030 75 214 2.0 8.0 0.00 0.22 0.22 88 1013.1
20260904004600 75 222 2.0 8.0 0.00 0.22 0.22 88 1013.1
20260904004033 75 263 3.0 8.0 0.00 0.22 0.22 88 1013.2
20260904003531 75 277 1.0 6.0 0.00 0.22 0.22 89 1013.2
20260904003050 75 277 1.0 7.0 0.00 0.22 0.22 89 1013.1
20260904002530 75 277 2.0 7.0 0.00 0.22 0.22 89 1012.9
20260904002030 75 277 1.0 6.0 0.00 0.22 0.22 89 1012.8
20260904001547 74 277 1.0 3.0 0.00 0.22 0.22 89 1012.6
20260904001031 74 277 0.0 2.0 0.00 0.22 0.22 89 1012.5
20260904000529 74 277 0.0 3.0 0.00 0.22 0.22 89 1012.5
20260904000132 74 277 1.0 3.0 0.00 0.22 0.22 89 1012.4
20260903235529 74 277 0.0 0.0 0.00 0.22 0.22 88 1012.2
20260903235032 74 0 0.0 0.0 0.00 0.22 0.22 87 1012.2
20260903234553 74 0 0.0 0.0 0.00 0.22 0.22 87 1012.3
20260903234030 75 0 0.0 0.0 0.00 0.22 0.22 86 1012.4
20260903233532 75 0 0.0 0.0 0.00 0.22 0.22 85 1012.4
20260903233049 75 0 0.0 0.0 0.00 0.22 0.22 85 1012.4
20260903232531 76 0 0.0 0.0 0.00 0.22 0.22 84 1012.5
20260903232031 76 0 0.0 0.0 0.00 0.22 0.22 84 1012.3
20260903231546 76 0 0.0 0.0 0.00 0.22 0.22 83 1012.3
20260903231031 77 0 0.0 0.0 0.00 0.22 0.22 83 1012.3
20260903230530 77 0 0.0 0.0 0.00 0.22 0.22 82 1012.4
20260903230048 77 0 0.0 0.0 0.00 0.22 0.22 82 1012.4
20260903225533 78 0 0.0 0.0 0.00 0.22 0.22 82 1012.4
20260903225031 78 0 0.0 0.0 0.00 0.22 0.22 82 1012.5
20260903224605 77 0 0.0 0.0 0.00 0.22 0.22 82 1012.5
20260903224031 77 0 0.0 0.0 0.00 0.22 0.22 83 1012.5
20260903223530 77 0 0.0 0.0 0.00 0.22 0.22 82 1012.7
20260903223047 77 0 0.0 0.0 0.00 0.22 0.22 82 1012.8
20260903222529 77 0 0.0 0.0 0.00 0.22 0.22 81 1012.7
20260903222031 78 0 0.0 2.0 0.00 0.22 0.22 80 1012.7
20260903221545 78 0 0.0 2.0 0.00 0.22 0.22 79 1012.7
20260903221029 78 0 0.0 2.0 0.00 0.22 0.22 80 1012.7
20260903220530 78 0 0.0 2.0 0.00 0.22 0.22 80 1012.7
20260903220056 78 0 1.0 3.0 0.00 0.22 0.22 79 1012.7
20260903215532 78 277 1.0 3.0 0.00 0.22 0.22 80 1012.8
20260903215030 77 277 1.0 3.0 0.00 0.22 0.22 81 1012.6
20260903214553 77 0 0.0 2.0 0.00 0.22 0.22 82 1012.6
20260903214030 76 277 0.0 1.0 0.00 0.22 0.22 84 1012.5
20260903213533 76 0 0.0 3.0 0.00 0.22 0.22 84 1012.7
20260903213049 76 277 1.0 3.0 0.00 0.22 0.22 84 1012.7
20260903212531 77 0 0.0 2.0 0.00 0.22 0.22 84 1012.7
20260903212033 77 277 1.0 3.0 0.00 0.22 0.22 83 1012.5
20260903211613 77 277 1.0 4.0 0.00 0.22 0.22 82 1012.5
20260903211033 78 277 2.0 4.0 0.00 0.22 0.22 81 1012.7
20260903210532 78 277 2.0 4.0 0.00 0.22 0.22 81 1012.7
20260903210045 78 277 2.0 4.0 0.00 0.22 0.22 81 1012.6
20260903205530 77 277 1.0 4.0 0.00 0.22 0.22 82 1012.7
20260903205032 77 277 2.0 6.0 0.00 0.22 0.22 83 1012.8
20260903204552 77 277 3.0 7.0 0.00 0.22 0.22 84 1012.8
20260903204034 77 277 4.0 7.0 0.00 0.22 0.22 83 1012.8
20260903203534 77 277 4.0 8.0 0.00 0.22 0.22 82 1012.8
20260903203049 78 277 4.0 8.0 0.00 0.22 0.22 83 1012.8
20260903202532 77 277 5.0 8.0 0.00 0.22 0.22 82 1012.8
20260903202032 77 277 3.0 4.0 0.00 0.22 0.22 84 1012.7
20260903201553 77 277 3.0 3.0 0.00 0.22 0.22 83 1012.8
20260903201032 77 277 2.0 3.0 0.00 0.22 0.22 84 1012.8
20260903200532 77 277 1.0 4.0 0.00 0.22 0.22 85 1012.9
20260903200051 77 277 3.0 4.0 0.00 0.22 0.22 84 1013.0
20260903195531 77 277 3.0 4.0 0.00 0.22 0.22 83 1013.2
20260903195034 77 277 2.0 6.0 0.00 0.22 0.22 84 1013.0
20260903194548 77 277 3.0 6.0 0.00 0.22 0.22 83 1013.2
20260903194033 77 277 4.0 6.0 0.00 0.22 0.22 84 1013.2
20260903193533 77 277 4.0 6.0 0.00 0.22 0.22 84 1013.1
20260903193055 77 277 4.0 8.0 0.00 0.22 0.22 84 1013.3
20260903192534 76 277 4.0 8.0 0.00 0.22 0.22 85 1013.4
20260903192032 76 277 6.0 10.0 0.00 0.22 0.22 85 1013.4
20260903191546 76 277 6.0 10.0 0.00 0.22 0.22 85 1013.3
20260903191034 76 278 7.0 10.0 0.00 0.22 0.22 85 1013.4
20260903190532 76 277 7.0 10.0 0.00 0.22 0.22 85 1013.4
20260903190047 76 280 6.0 10.0 0.00 0.22 0.22 87 1013.5
20260903185532 75 281 6.0 10.0 0.00 0.22 0.22 87 1013.6
20260903185032 75 281 7.0 10.0 0.00 0.22 0.22 86 1013.7
20260903184547 75 280 6.0 10.0 0.00 0.22 0.22 86 1013.6
20260903184034 75 280 7.0 10.0 0.00 0.22 0.22 86 1013.6
20260903183532 75 281 7.0 11.0 0.00 0.22 0.22 86 1013.7
20260903183055 75 282 8.0 11.0 0.00 0.22 0.22 86 1013.7
20260903182534 75 277 8.0 11.0 0.00 0.22 0.22 86 1013.6
20260903182034 75 273 8.0 11.0 0.00 0.22 0.22 85 1013.7
20260903181549 75 277 7.0 11.0 0.00 0.22 0.22 85 1013.6
20260903181033 75 275 7.0 11.0 0.00 0.22 0.22 85 1013.6
20260903180535 76 275 9.0 12.0 0.00 0.22 0.22 84 1013.7
20260903180055 76 279 8.0 12.0 0.00 0.22 0.22 85 1013.6
20260903175533 76 275 9.0 12.0 0.00 0.22 0.22 85 1013.7
20260903175031 75 279 8.0 12.0 0.00 0.22 0.22 85 1013.7
20260903174605 75 286 9.0 12.0 0.00 0.22 0.22 85 1013.7
20260903174033 75 284 7.0 12.0 0.00 0.22 0.22 86 1013.7
20260903173532 75 286 9.0 12.0 0.00 0.22 0.22 85 1013.7
20260903173059 75 285 6.0 8.0 0.00 0.22 0.22 86 1013.7
20260903172534 75 284 6.0 9.0 0.00 0.22 0.22 86 1013.6
20260903172030 75 285 6.0 9.0 0.00 0.22 0.22 86 1013.5
20260903171551 74 286 6.0 10.0 0.00 0.22 0.22 87 1013.6
20260903171030 74 286 6.0 10.0 0.00 0.22 0.22 87 1013.7
20260903170537 74 289 6.0 11.0 0.00 0.22 0.22 87 1013.9
20260903170105 74 291 9.0 11.0 0.00 0.22 0.22 87 1014.1
20260903165530 74 297 9.0 11.0 0.00 0.22 0.22 87 1014.2
20260903165031 74 299 8.0 11.0 0.00 0.22 0.22 88 1014.2
20260903164552 74 300 9.0 11.0 0.00 0.22 0.22 87 1014.3
20260903164032 74 300 8.0 10.0 0.00 0.22 0.22 87 1014.2
20260903163531 74 299 8.0 11.0 0.00 0.22 0.22 87 1014.5
20260903163055 74 297 8.0 11.0 0.00 0.22 0.22 87 1014.4
20260903162531 74 295 9.0 11.0 0.00 0.22 0.22 87 1014.4
20260903162031 74 292 8.0 10.0 0.00 0.22 0.22 87 1014.5
20260903161549 74 287 7.0 10.0 0.00 0.22 0.22 88 1014.4
20260903161033 74 288 8.0 10.0 0.00 0.22 0.22 87 1014.4
20260903160534 74 287 8.0 10.0 0.00 0.22 0.22 87 1014.4
20260903160058 74 285 8.0 10.0 0.00 0.22 0.22 86 1014.4
20260903155531 75 278 7.0 9.0 0.00 0.22 0.22 85 1014.4
20260903155034 75 271 4.0 7.0 0.00 0.22 0.22 86 1014.4
20260903154554 75 271 5.0 7.0 0.00 0.22 0.22 86 1014.4
20260903154033 74 271 4.0 9.0 0.00 0.22 0.22 86 1014.4
20260903153531 74 271 6.0 9.0 0.00 0.22 0.22 86 1014.5
20260903153055 74 272 6.0 9.0 0.00 0.22 0.22 86 1014.7
20260903152530 74 271 4.0 7.0 0.00 0.22 0.22 86 1014.7
20260903152031 74 271 4.0 8.0 0.00 0.22 0.22 86 1014.7
20260903151554 74 271 5.0 9.0 0.00 0.22 0.22 85 1014.7
20260903151030 74 271 5.0 10.0 0.00 0.22 0.22 85 1014.9
20260903150529 75 271 7.0 10.0 0.00 0.22 0.22 84 1014.9
20260903150050 75 267 5.0 9.0 0.00 0.22 0.22 82 1014.9
20260903145532 75 253 3.0 7.0 0.00 0.22 0.22 82 1014.9
20260903145029 75 253 2.0 9.0 0.00 0.22 0.22 83 1015.1
20260903144548 74 254 3.0 9.0 0.00 0.22 0.22 82 1015.0
20260903144033 74 0 4.0 9.0 0.00 0.22 0.22 86 1015.1
20260903143530 74 269 4.0 9.0 0.00 0.22 0.22 86 1015.2
20260903143045 74 271 6.0 9.0 0.00 0.22 0.22 87 1015.0
20260903142530 74 269 5.0 8.0 0.00 0.22 0.22 87 1015.1
20260903142033 74 278 4.0 9.0 0.00 0.22 0.22 87 1015.2
20260903141553 74 259 5.0 9.0 0.00 0.22 0.22 87 1015.2
20260903141034 74 262 4.0 7.0 0.00 0.22 0.22 88 1015.3
20260903140531 74 262 1.0 6.0 0.00 0.22 0.22 89 1015.2
20260903140103 73 262 2.0 6.0 0.00 0.22 0.22 89 1015.0
20260903135535 73 0 2.0 6.0 0.00 0.22 0.22 89 1015.1
20260903135031 73 262 1.0 6.0 0.00 0.22 0.22 90 1015.1
20260903134559 73 262 2.0 6.0 0.00 0.22 0.22 90 1015.2
20260903134035 73 262 1.0 4.0 0.00 0.22 0.22 90 1015.2
20260903133534 73 262 0.0 4.0 0.00 0.22 0.22 90 1015.2
20260903133057 72 262 1.0 6.0 0.00 0.22 0.22 91 1015.3
20260903132531 72 262 2.0 7.0 0.00 0.22 0.22 91 1015.4
20260903132034 72 261 3.0 7.0 0.00 0.22 0.22 90 1015.5
20260903131558 72 0 0.0 6.0 0.00 0.22 0.22 91 1015.3
20260903131036 72 261 1.0 6.0 0.00 0.22 0.22 90 1015.3
20260903130530 72 262 1.0 4.0 0.00 0.22 0.22 91 1015.3
20260903130104 72 262 0.0 10.0 0.00 0.22 0.22 91 1015.5
20260903125532 72 261 3.0 10.0 0.00 0.22 0.22 91 1015.7
20260903125034 72 266 4.0 10.0 0.00 0.22 0.22 91 1015.9
20260903124544 72 260 5.0 10.0 0.00 0.22 0.22 91 1015.7
20260903124032 72 262 5.0 9.0 0.00 0.22 0.22 91 1015.9
20260903123531 72 261 4.0 10.0 0.00 0.22 0.22 91 1015.7
20260903123057 72 257 5.0 10.0 0.00 0.22 0.22 91 1015.7
20260903122533 72 218 6.0 10.0 0.00 0.22 0.22 91 1015.7
20260903122031 72 259 6.0 10.0 0.00 0.22 0.22 91 1015.8
20260903121549 71 258 5.0 9.0 0.00 0.22 0.22 91 1015.8
20260903121031 72 246 3.0 8.0 0.00 0.22 0.22 92 1015.7
20260903120532 72 259 4.0 8.0 0.00 0.22 0.22 92 1015.9
20260903120045 72 259 3.0 10.0 0.00 0.22 0.22 92 1015.8
20260903115532 72 259 4.0 10.0 0.00 0.22 0.22 92 1015.8
20260903115035 72 261 4.0 10.0 0.00 0.22 0.22 92 1015.8
20260903114547 72 248 4.0 8.0 0.00 0.22 0.22 92 1015.8
20260903114034 72 254 3.0 9.0 0.00 0.22 0.22 92 1015.9
20260903113533 72 246 3.0 9.0 0.00 0.22 0.22 93 1015.8
20260903113050 72 247 3.0 9.0 0.00 0.22 0.22 93 1016.0
20260903112535 72 222 2.0 7.0 0.00 0.22 0.22 93 1016.0
20260903112032 72 214 2.0 7.0 0.00 0.22 0.22 93 1016.1
20260903111620 72 214 2.0 6.0 0.00 0.22 0.22 94 1016.1
20260903111031 72 209 1.0 4.0 0.00 0.22 0.22 94 1016.1
20260903110531 72 210 1.0 4.0 0.00 0.22 0.22 94 1016.0
20260903110054 72 209 0.0 5.0 0.00 0.22 0.22 94 1016.1
20260903105535 72 0 1.0 5.0 0.00 0.22 0.22 94 1016.1
20260903105031 72 209 1.0 6.0 0.00 0.22 0.22 94 1016.0
20260903104558 72 209 1.0 6.0 0.00 0.22 0.22 94 1015.9
20260903104031 72 209 0.0 3.0 0.00 0.22 0.22 94 1015.8
20260903103531 72 209 0.0 3.0 0.00 0.22 0.22 94 1015.6
20260903103054 72 209 0.0 3.0 0.00 0.22 0.22 94 1015.6
20260903102533 72 209 1.0 3.0 0.00 0.22 0.22 94 1015.5
20260903102032 72 209 1.0 3.0 0.00 0.22 0.22 94 1015.4
20260903101550 72 209 1.0 3.0 0.00 0.22 0.22 94 1015.3
20260903101031 72 209 1.0 4.0 0.00 0.22 0.22 94 1015.2
20260903100531 72 0 0.0 4.0 0.00 0.22 0.22 93 1015.2
20260903100047 72 0 1.0 4.0 0.00 0.22 0.22 93 1015.1
20260903095530 72 209 1.0 3.0 0.00 0.22 0.22 93 1015.0
20260903095031 72 209 0.0 3.0 0.00 0.22 0.22 93 1015.2
20260903094555 72 209 1.0 3.0 0.00 0.22 0.22 93 1015.3
20260903094032 72 209 2.0 7.0 0.00 0.22 0.22 94 1015.2
20260903093537 72 209 2.0 7.0 0.00 0.22 0.22 94 1015.2
20260903093051 72 209 2.0 8.0 0.00 0.22 0.22 94 1015.1
20260903092534 72 209 1.0 8.0 0.00 0.22 0.22 94 1015.0
20260903092031 72 209 3.0 8.0 0.00 0.22 0.22 94 1015.0
20260903091549 72 211 2.0 7.0 0.00 0.22 0.22 94 1015.0
20260903091034 72 211 3.0 7.0 0.00 0.22 0.22 94 1015.1